STARLINK-34853

Last updated on Mon Oct 20 2025 00:02:08 GMT+0000 (Coordinated Universal Time)

1 65892U 25224L 25292.25002315 -.01476864 00000+0 -79492-2 0 9993 2 65892 53.1513 313.5207 0001159 69.6184 40.8117 15.82206269 3084
UTC large
Height (km)
Speed (km/s)
/
Latitude / Longitude
Inclination (degrees)
Orbital Period (minutes)
Azimuth
Elevation
Range (km)
Doppler Factor

Next 0 passes for location: London (51.5072 / 0.1276)

Sorry there are no passes over London.